TSC5014 CYUL-EVRA

Flight info

Callsign TSC5014
Flight time N/A
Altitude 35000
Route SINRO DCT LOKBU DCT SOKYE DCT DICEN DCT ANCER DCT 51N066W DCT YYR/N0475F370 DCT IRLOK/M081F370 DCT 57N050W 60N040W 62N030W 63N020W 63N010W DCT BARUD/N0462F370 DCT MASEV DCT MILTA Y130 LAPSA
Aircraft A333/H-SADE1E2E3GHIJ1J3J5M1P2RWXY/LB2D1

Departure

Time 2026-05-04 14:55
Airport Montreal / Pierre Elliott Trudeau International Airport (CYUL)

Arrival

Time N/A
Airport Riga International Airport (EVRA)
Time Latitude Longitude Altitude Speed Heading
2026-05-04 14:19 45.45938 -73.75201 115 ft 0 kts 179°
2026-05-04 14:40 45.45953 -73.75202 115 ft 2 kts 171°
2026-05-04 14:40 45.45967 -73.75207 115 ft 2 kts 163°
2026-05-04 14:40 45.45982 -73.75214 115 ft 2 kts 155°
2026-05-04 14:41 45.45995 -73.75223 115 ft 2 kts 148°
2026-05-04 14:41 45.46008 -73.75236 115 ft 2 kts 140°
2026-05-04 14:41 45.46028 -73.75266 115 ft 2 kts 126°
2026-05-04 14:42 45.46037 -73.75284 115 ft 0 kts 127°
2026-05-04 14:44 45.46036 -73.75282 115 ft 0 kts 127°
2026-05-04 14:44 45.46031 -73.75272 115 ft 2 kts 125°
2026-05-04 14:44 45.46019 -73.75246 115 ft 4 kts 121°
2026-05-04 14:44 45.46003 -73.75194 115 ft 6 kts 106°
2026-05-04 14:45 45.45995 -73.75118 115 ft 8 kts 95°
2026-05-04 14:45 45.45991 -73.75022 115 ft 10 kts 92°
2026-05-04 14:45 45.45988 -73.74915 115 ft 11 kts 95°
2026-05-04 14:45 45.45970 -73.74812 115 ft 10 kts 107°
2026-05-04 14:46 45.45953 -73.74708 115 ft 10 kts 91°
2026-05-04 14:46 45.45957 -73.74607 115 ft 10 kts 78°
2026-05-04 14:46 45.45980 -73.74505 115 ft 10 kts 72°
2026-05-04 14:46 45.45999 -73.74403 115 ft 9 kts 96°
2026-05-04 14:47 45.45975 -73.74316 115 ft 8 kts 94°
2026-05-04 14:47 45.45998 -73.74238 115 ft 9 kts 51°
2026-05-04 14:47 45.46043 -73.74170 115 ft 10 kts 42°
2026-05-04 14:47 45.46099 -73.74097 115 ft 12 kts 42°
2026-05-04 14:48 45.46166 -73.74008 115 ft 13 kts 43°
2026-05-04 14:48 45.46242 -73.73908 115 ft 15 kts 43°
2026-05-04 14:48 45.46324 -73.73801 115 ft 16 kts 42°
2026-05-04 14:48 45.46381 -73.73727 116 ft 17 kts 41°
2026-05-04 14:49 45.46447 -73.73640 115 ft 19 kts 43°
2026-05-04 14:49 45.46546 -73.73508 116 ft 18 kts 43°
2026-05-04 14:49 45.46637 -73.73391 119 ft 17 kts 42°
2026-05-04 14:49 45.46725 -73.73278 119 ft 17 kts 41°
2026-05-04 14:50 45.46812 -73.73163 119 ft 16 kts 43°
2026-05-04 14:50 45.46897 -73.73048 120 ft 17 kts 43°
2026-05-04 14:50 45.46983 -73.72935 122 ft 16 kts 42°
2026-05-04 14:50 45.47074 -73.72816 122 ft 18 kts 42°
2026-05-04 14:51 45.47168 -73.72696 125 ft 17 kts 41°
2026-05-04 14:51 45.47261 -73.72574 126 ft 18 kts 43°
2026-05-04 14:51 45.47353 -73.72450 130 ft 17 kts 43°
2026-05-04 14:51 45.47443 -73.72331 132 ft 17 kts 42°
2026-05-04 14:52 45.47532 -73.72214 135 ft 17 kts 43°
2026-05-04 14:52 45.47622 -73.72095 136 ft 17 kts 42°
2026-05-04 14:52 45.47712 -73.71982 137 ft 15 kts 43°
2026-05-04 14:52 45.47787 -73.71879 139 ft 14 kts 46°
2026-05-04 14:53 45.47807 -73.71779 140 ft 8 kts 116°
2026-05-04 14:53 45.47768 -73.71712 141 ft 9 kts 136°
2026-05-04 14:53 45.47718 -73.71654 143 ft 9 kts 143°
2026-05-04 14:53 45.47661 -73.71657 143 ft 7 kts 219°
2026-05-04 14:54 45.47646 -73.71677 142 ft 0 kts 222°
2026-05-04 14:54 45.47578 -73.71758 140 ft 39 kts 225°
2026-05-04 14:54 45.47223 -73.72236 132 ft 99 kts 224°
2026-05-04 14:54 45.46583 -73.73071 119 ft 148 kts 223°
2026-05-04 14:55 45.45750 -73.74170 328 ft 171 kts 223°
2026-05-04 14:55 45.44876 -73.75272 1037 ft 163 kts 224°
2026-05-04 14:55 45.44052 -73.76279 1726 ft 153 kts 224°
2026-05-04 14:55 45.43245 -73.77217 2214 ft 151 kts 224°
2026-05-04 14:56 45.42429 -73.78134 2640 ft 151 kts 223°
2026-05-04 14:56 45.41599 -73.79059 3073 ft 151 kts 223°
2026-05-04 14:56 45.40767 -73.79979 3395 ft 158 kts 223°
2026-05-04 14:56 45.39867 -73.80972 3646 ft 170 kts 223°
2026-05-04 14:57 45.38895 -73.82048 3907 ft 183 kts 223°
2026-05-04 14:57 45.37835 -73.83176 4167 ft 199 kts 214°
2026-05-04 14:57 45.36408 -73.83621 4403 ft 228 kts 179°
2026-05-04 14:57 45.34838 -73.82809 4667 ft 256 kts 147°
2026-05-04 14:58 45.33640 -73.80859 4959 ft 278 kts 117°
2026-05-04 14:58 45.33175 -73.78144 5395 ft 287 kts 86°
2026-05-04 14:58 45.33401 -73.75588 5925 ft 288 kts 77°
2026-05-04 14:58 45.33762 -73.72755 6474 ft 293 kts 76°
2026-05-04 14:59 45.34118 -73.70019 6995 ft 297 kts 76°
2026-05-04 14:59 45.34491 -73.67123 7548 ft 300 kts 76°
2026-05-04 14:59 45.35282 -73.61215 8673 ft 305 kts 69°
2026-05-04 15:00 45.36244 -73.58625 9201 ft 295 kts 40°
2026-05-04 15:00 45.37818 -73.56871 9758 ft 284 kts 21°
2026-05-04 15:00 45.39550 -73.55580 10290 ft 285 kts 17°
2026-05-04 15:01 45.43148 -73.53138 11431 ft 288 kts 16°
2026-05-04 15:01 45.44976 -73.51907 12001 ft 290 kts 16°
2026-05-04 15:01 45.46779 -73.50693 12564 ft 291 kts 16°
2026-05-04 15:01 45.48619 -73.49450 13138 ft 293 kts 16°
2026-05-04 15:02 45.50459 -73.48199 13695 ft 295 kts 16°
2026-05-04 15:02 45.52319 -73.46933 14270 ft 297 kts 16°
2026-05-04 15:02 45.54202 -73.45641 14841 ft 298 kts 16°
2026-05-04 15:02 45.56060 -73.44361 15363 ft 301 kts 16°
2026-05-04 15:03 45.57979 -73.43124 15876 ft 296 kts
2026-05-04 15:03 45.59914 -73.43017 16398 ft 271 kts 335°
2026-05-04 15:03 45.61682 -73.43873 16950 ft 269 kts 333°
2026-05-04 15:03 45.63460 -73.44707 17485 ft 272 kts 334°
2026-05-04 15:04 45.65257 -73.45497 18011 ft 274 kts 335°
2026-05-04 15:04 45.67113 -73.46285 18282 ft 285 kts 335°
2026-05-04 15:04 45.69080 -73.47102 18525 ft 297 kts 336°
2026-05-04 15:04 45.71105 -73.47933 18754 ft 309 kts 336°
2026-05-04 15:05 45.73195 -73.48778 19002 ft 320 kts 337°
2026-05-04 15:05 45.75364 -73.49651 19457 ft 324 kts 337°
2026-05-04 15:05 45.77537 -73.50520 19999 ft 325 kts 337°
2026-05-04 15:05 45.79709 -73.51389 20544 ft 326 kts 337°
2026-05-04 15:06 45.81871 -73.52255 21070 ft 326 kts 337°
2026-05-04 15:06 45.84076 -73.53139 21596 ft 327 kts 337°
2026-05-04 15:06 45.86284 -73.53984 22078 ft 331 kts 342°
2026-05-04 15:07 45.91046 -73.52994 22580 ft 381 kts 18°